User: anonymous   Login
Location: Ay?beleni
(36.6500°N, 30.3000°E)
Time: 10:28:24
(UTC+00:00)
Language:

CZ-4C R/B - Orbit

View from above orbital plane
View from above orbital plane
View from above satellite
View from above satellite

Ground track
Ground track

The orbit data is extracted from the following two-line orbital elements,

1 36416U 10009D   21209.52208695 -.00000012  00000-0  42593-4 0  9992
2 36416  63.4175 188.7945 0535061 355.6744   3.9762 13.69597891569931
Epoch (UTC): 28 July 2021 12:31:48
Eccentricity: 0.0535061
inclination: 63.4175°
perigee height: 606 km
apogee height: 1396 km
right ascension of ascending node: 188.7945°
argument of perigee: 355.6744°
revolutions per day: 13.69597891
mean anomaly at epoch: 3.9762°
orbit number at epoch: 56993

The dashed part of the orbit path shows where the satellite is in the earth's shadow,  

DLR